Tracking 23610 objects as of 19-Sep-2021
HD Live streaming from Space Station
objects crossing your sky now

STARLINK-2693

Track STARLINK-2693 now!
10-day predictions
STARLINK-2693 is classified as:


NORAD ID: 48461
Int'l Code: 2021-040AK
Perigee: 553.9 km
Apogee: 554.8 km
Inclination: 53.1 °
Period: 95.6 minutes
Semi major axis: 6925 km
RCS: Unknown
Launch date: May 9, 2021
Source: United States (US)
Launch site: AIR FORCE EASTERN TEST RANGE (AFETR)
aabbcc
Your satellite tracking list
Your tracking list is empty




NASA's NSSDC Master Catalog

Two Line Element Set (TLE):
1 48461U 21040AK  21262.25001157 -.00019242  00000-0 -12761-2 0  9993
2 48461  53.0542 314.9143 0000626 102.7156 155.5204 15.06408547 21796
Source of the keplerian elements: AFSPC